Вернуться в каталог

KUIPER-00105

АктивенСвязьLEO
NORAD 65143·PAYLOAD·🇺🇸 United States

Запущен Aug 11, 2025 с Cape Canaveral Space Force Station

Loading…

Ближайшие Пролёты (ближайшие 24 часа)

TLE

СвежийSource: CelesTrak SupGP

Эпоха: Sep 14, 2026, 22:48 UTC

1 65143C 25171M   26257.95043982  .00004360  00000+0  57073-3 0  2571
2 65143  51.9008  48.7457 0000629 112.8921 220.4447 14.79931140    13

Отслеживайте KUIPER-00105 в реальном времени с AllMySat

Download on the App Store